{"data":{"norad_id":52854,"epoch":"2026-05-25T00:11:37.255776Z","epoch_age_seconds":77489,"freshness":"FRESH","line1":"1 52854U 22062AA  26145.00807009  .00000647  00000+0  58738-4 0  9999","line2":"2 52854  53.2139  41.5118 0001607  89.6841 270.4335 15.08833248217443","mean_motion":15.08833248,"eccentricity":0.0001607,"inclination_deg":53.2139,"raan_deg":41.5118,"arg_perigee_deg":89.6841,"mean_anomaly_deg":270.4335,"bstar":5.8738e-5,"rev_number":21744,"period_min":95.437981759002,"perigee_km":538.65232050882,"apogee_km":540.87573389896,"semimajor_km":6917.9010272039,"source":"CELESTRAK","updated_at":"2026-05-25T13:38:17.245830Z"}}